Home > Weather > Lens > Past weeks

Flag for France Past Weather in Lens, Nord-Pas-de-Calais, France — Yesterday and Last 2 Weeks

Now
59 °F

Partly cloudy.


Feels Like: 58 °F
Forecast: 56 / 70 °F
Wind: 6 mph from West

Location: Lille Airport

Current Time: Jul 30, 2016 at 5:33:19 AM

Latest Report: Jul 30, 2016 at 5:00 AM


Visibility: N/A

Pressure: 29.92 "Hg

Humidity: 88%

Dew Point: 55 °F

Location of LensLocation

Past Weather in Lens — Graph

°F

Lens Temperature Yesterday

Maximum temperature yesterday: 73 °F (at 5:30 PM)
Minimum temperature yesterday: 61 °F (at 11:30 PM)
Average temperature yesterday: 66 °F

High & Low Weather Summary for the Past Weeks

 TemperatureHumidityPressure
High90 °F (Jul 19, 3:00 PM)100% (Jul 18, 6:30 AM)30.33 "Hg (Jul 18, 6:30 AM)
Low52 °F (Jul 15, 4:00 AM)36% (Jul 19, 3:30 PM)29.83 "Hg (Jul 20, 9:30 AM)
Average69 °F72%30.08 "Hg
* Reported Jul 15 4:00 AM — Jul 30 4:30 AM, Lens, Weather by CustomWeather, © 2016

Note: Actual official high and low records may vary slightly from our data, if they occured in-between our weather recording intervals... More about our weather records

Advertising

Lens Weather History for the Previous 24 Hours

Scroll right to see more
 ConditionsComfort  
Time TempWeatherWind HumidityBarometerVisibility
4:30 AM
Sat, Jul 30
59 °FPassing clouds.8 mph94%29.92 "HgN/A
4:00 AM59 °FPassing clouds.6 mph94%29.92 "HgN/A
3:30 AM59 °FClear.6 mph88%29.92 "Hg10 mi
3:00 AM59 °FPassing clouds.6 mph88%29.92 "HgN/A
2:30 AM57 °FClear.6 mph94%29.92 "Hg10 mi
2:00 AM57 °FClear.7 mph94%29.92 "Hg10 mi
1:30 AM59 °FClear.6 mph88%29.92 "Hg10 mi
1:00 AM59 °FClear.8 mph88%29.92 "Hg10 mi
12:30 AM59 °FPassing clouds.5 mph88%29.92 "HgN/A
12:00 AM61 °FPassing clouds.6 mph83%29.92 "HgN/A
11:30 PM
Fri, Jul 29
61 °FClear.7 mph83%29.92 "Hg10 mi
11:00 PM63 °FClear.8 mph77%29.92 "Hg10 mi
10:30 PM63 °FSunny.6 mph73%29.92 "Hg10 mi
10:00 PM64 °FSunny.10 mph68%29.92 "Hg10 mi
9:30 PM64 °FSunny.10 mph73%29.92 "Hg10 mi
9:00 PM66 °FSunny.12 mph68%29.92 "Hg10 mi
8:30 PM68 °FSunny.13 mph64%29.92 "Hg10 mi
8:00 PM70 °FPassing clouds.15 mph60%29.92 "HgN/A
7:30 PM72 °FBroken clouds.15 mph57%29.89 "HgN/A
7:00 PM72 °FPassing clouds.14 mph61%29.89 "HgN/A
6:30 PM72 °FScattered clouds.13 mph57%29.89 "HgN/A
6:00 PM72 °FPartly sunny.15 mph57%29.89 "HgN/A
5:30 PM73 °FScattered clouds.12 mph57%29.89 "HgN/A
5:00 PM72 °FPartly sunny.16 mph61%29.92 "HgN/A
4:30 PM70 °FOvercast.14 mph64%29.92 "HgN/A
4:00 PM70 °FOvercast.16 mph64%29.92 "HgN/A
3:30 PM70 °FMostly cloudy.16 mph64%29.92 "HgN/A
3:00 PM70 °FMostly cloudy.16 mph64%29.92 "HgN/A
2:30 PM70 °FPartly sunny.16 mph64%29.92 "HgN/A
2:00 PM70 °FMostly cloudy.15 mph69%29.92 "HgN/A
1:30 PM70 °FMostly cloudy.15 mph69%29.89 "HgN/A
1:00 PM68 °FMore clouds than sun.13 mph73%29.89 "HgN/A
12:30 PM68 °FPartly sunny.16 mph73%29.89 "HgN/A
12:00 PM66 °FBroken clouds.16 mph78%29.92 "HgN/A
11:30 AM64 °FLight rain. Partly sunny.10 mph88%29.92 "HgN/A
11:00 AM66 °FPartly sunny.15 mph83%29.92 "HgN/A
10:30 AM64 °FLight rain. Mostly cloudy.12 mph88%29.92 "HgN/A
10:00 AM68 °FPartly sunny.13 mph78%29.89 "HgN/A
9:30 AM66 °FPartly sunny.13 mph78%29.89 "HgN/A
9:00 AM66 °FBroken clouds.12 mph83%29.89 "HgN/A
8:30 AM64 °FPartly sunny.6 mph88%29.92 "HgN/A
8:00 AM64 °FBroken clouds.7 mph94%29.92 "HgN/A
7:30 AM64 °FMostly cloudy.7 mph88%29.89 "HgN/A
7:00 AM64 °FMostly cloudy.7 mph88%29.89 "HgN/A
6:30 AM63 °FPassing clouds.6 mph94%29.89 "HgN/A
6:00 AM63 °FPartly cloudy.7 mph94%29.89 "HgN/A
5:30 AM64 °FMostly cloudy.10 mph94%29.89 "HgN/A
5:00 AM64 °FMostly cloudy.8 mph94%29.89 "HgN/A
Weather by CustomWeather, © 2016

See weather overviewHow to use our weather pages